Theta_e
321 334 336 338 347 342 339 336 339 341 341 345 348 350 353 350 351 358 347 347 344 341 332 339 337 336 337 336 335 335 335 334 334 335 336 336 335 335 335 335 335 335 334 334 335 335 333 333 333
322 331 335 338 343 345 338 337 339 342 344 345 347 347 351 356 346 344 343 343 347 345 340 341 337 335 334 333 333 334 335 335 335 336 336 337 337 336 336 336 337 337 338 337 336 336 335 335 335
327 331 334 340 342 348 339 338 339 339 342 343 347 348 352 350 349 347 347 344 344 347 345 331 333 336 336 335 334 334 335 334 335 335 336 336 337 337 338 339 339 341 343 344 343 341 339 338 338
333 333 335 337 344 341 337 337 334 340 338 343 344 347 346 345 346 347 344 343 347 354 350 338 328 335 337 337 337 336 336 336 336 337 337 336 336 336 336 337 338 340 343 348 347 344 342 340 337
330 333 336 339 337 336 335 335 333 336 339 343 343 346 346 344 345 345 345 344 349 351 348 339 330 329 332 335 336 337 337 337 337 337 337 336 336 336 336 335 335 335 336 337 337 338 340 341 338
329 332 338 342 337 335 335 335 333 336 338 342 343 346 347 345 346 347 348 347 346 349 349 341 331 330 330 330 330 331 332 333 333 333 334 335 335 336 335 334 333 334 334 334 333 333 333 333 333
330 333 338 339 338 337 334 333 330 332 337 341 343 348 348 345 346 346 345 344 344 346 350 347 340 334 333 334 334 334 333 333 334 335 336 336 337 338 338 338 338 335 334 334 333 333 333 333 334
330 330 339 339 338 338 334 332 329 331 335 338 339 346 348 346 345 344 341 340 341 341 342 352 351 347 346 341 335 333 334 333 334 336 337 341 343 339 338 340 344 343 343 342 341 335 332 332 338
330 331 336 338 336 336 334 332 329 332 334 337 339 343 343 344 343 341 340 341 341 343 344 345 349 350 352 351 344 345 344 344 344 345 347 347 346 348 344 347 345 345 340 338 333 333 334 340 342
330 331 333 331 335 335 334 333 332 331 332 336 339 340 342 342 342 342 342 341 341 342 345 348 344 344 342 342 342 347 346 346 343 340 337 339 337 340 340 341 344 336 334 339 341 340 339 341 343
329 329 328 329 329 333 334 334 333 333 333 335 339 341 343 343 342 341 340 340 341 343 344 344 344 340 333 331 330 329 329 330 330 332 330 333 330 331 330 330 333 334 340 341 335 337 338 341 340
327 328 327 329 328 333 333 334 333 336 336 333 338 340 341 343 340 339 338 339 342 342 342 340 335 333 334 330 329 329 329 327 330 329 331 328 328 331 328 329 327 328 326 328 329 329 330 330 333
326 328 327 328 328 330 332 331 333 336 335 334 337 340 341 340 339 339 338 338 339 337 332 331 333 335 335 330 330 332 329 329 328 328 330 328 329 333 327 328 325 324 326 327 326 327 328 328 330
328 327 327 328 328 331 329 331 330 336 336 332 338 338 339 340 340 340 337 337 336 331 331 333 335 336 334 335 332 329 328 327 327 327 327 329 328 327 326 324 325 322 325 323 321 323 323 326 327
327 325 326 327 328 330 330 329 333 331 333 333 337 337 337 340 340 340 336 337 332 331 332 332 332 334 333 333 331 328 329 329 328 326 328 327 327 326 325 324 323 323 323 322 320 321 323 325 325
326 326 327 328 329 330 331 329 330 333 338 332 336 338 337 344 341 338 336 331 331 333 335 333 330 330 331 331 330 329 327 327 329 329 327 327 326 327 325 323 323 323 321 321 321 323 321 320 320
327 328 328 329 329 327 331 330 332 334 336 337 335 336 339 341 342 339 331 329 330 334 334 333 332 330 333 331 329 328 328 328 326 326 325 323 325 326 326 325 325 324 321 321 320 322 321 322 321
329 329 328 328 328 327 326 327 327 333 335 334 333 333 336 341 342 333 331 330 331 334 334 333 331 331 333 332 332 331 330 327 327 325 325 324 324 326 326 326 325 324 324 322 320 321 320 321 318
327 327 327 328 328 328 328 328 328 329 330 329 329 331 334 342 336 330 328 333 333 333 334 334 334 333 333 334 335 333 333 330 327 327 326 325 326 324 324 324 323 322 322 321 321 324 323 323 319
327 328 329 330 329 328 329 329 328 328 329 329 329 331 334 342 341 336 333 332 333 333 334 335 335 334 336 337 335 332 330 329 324 319 323 321 321 320 321 320 320 320 319 319 318 317 320 321 322
328 330 330 327 326 326 327 328 329 332 332 331 331 334 337 342 340 339 334 331 332 333 335 335 336 334 331 330 328 324 324 321 320 320 319 319 318 318 319 319 318 315 318 319 319 318 319 319 318
328 328 327 325 325 325 326 326 332 331 329 332 333 333 334 336 340 338 335 332 332 334 331 328 327 326 327 326 324 323 323 322 320 319 318 317 317 315 314 314 315 319 317 317 316 316 316 317 319
328 327 328 328 327 328 328 326 332 329 331 328 330 333 333 335 336 335 333 334 333 331 328 324 324 325 324 324 323 321 321 320 320 318 318 317 316 317 316 315 314 314 313 312 312 312 313 315 317
330 330 328 327 329 330 329 327 332 331 329 328 330 329 331 333 333 336 334 331 330 327 324 323 322 322 321 321 320 320 320 319 319 318 317 316 315 314 314 315 314 313 313 312 312 311 311 312 314
330 330 330 331 330 331 330 328 332 329 327 326 327 328 329 329 330 333 333 332 326 324 323 322 321 321 320 319 318 318 317 319 317 316 315 314 314 313 312 314 313 314 313 312 312 312 312 312 312
329 328 333 332 327 326 327 327 331 328 327 326 326 327 327 328 328 327 327 326 324 323 322 321 320 320 319 317 317 317 319 317 316 315 313 313 312 312 313 313 314 313 313 311 312 311 311 311 311
329 330 327 328 331 331 329 331 328 328 328 327 327 327 327 328 328 327 326 324 323 322 321 320 319 318 316 316 317 318 317 316 315 313 312 312 312 312 312 312 313 312 311 309 308 308 308 310 311
330 328 329 330 335 331 328 329 332 330 329 328 328 327 327 328 327 326 324 323 322 321 319 319 317 316 316 317 318 317 316 314 314 313 313 311 310 312 312 311 312 310 309 308 307 307 308 309 311
330 327 329 331 331 333 333 330 330 329 328 328 328 326 326 326 325 324 323 322 320 319 319 318 316 315 316 317 317 316 314 313 314 313 312 310 310 310 312 309 308 307 307 307 306 306 306 307 310
329 327 327 330 330 330 331 330 330 328 328 328 328 326 325 325 324 323 322 320 320 319 318 316 315 315 316 317 316 315 314 314 312 310 309 309 308 309 309 307 307 307 307 307 307 307 306 308 310
Wind_Speed
15 6 8 4 5 3 3 19 17 14 13 13 17 21 22 10 6 7 6 12 25 18 17 14 12 11 10 9 8 7 5 5 4 5 5 5 5 5 5 5 5 4 4 4 4 4 4 4 4
10 10 14 5 4 6 8 20 16 10 11 15 15 17 21 17 18 12 12 8 16 18 16 13 12 10 9 8 7 5 4 3 3 3 3 3 3 3 2 2 2 2 3 3 3 4 4 5 5
13 7 6 8 4 5 6 14 13 14 13 12 18 17 10 16 14 12 12 10 11 20 20 12 11 10 9 8 7 5 3 2 1 0 1 2 2 3 3 3 3 3 3 4 5 5 6 6 7
9 7 7 6 16 17 15 14 13 17 12 21 14 14 16 19 20 15 10 10 13 20 15 14 10 9 8 7 6 4 3 2 2 2 3 4 4 4 5 6 6 6 6 6 7 7 9 9 9
19 7 3 12 11 16 12 10 13 15 11 22 20 17 16 16 15 13 9 11 19 20 14 13 11 9 7 6 5 4 3 3 4 6 6 7 7 8 8 9 10 10 10 10 10 10 11 11 12
11 2 8 15 11 13 10 9 14 13 16 20 21 18 14 15 14 13 10 9 15 18 13 11 9 8 7 6 5 4 5 5 6 8 9 10 11 11 11 12 13 13 13 13 14 14 14 14 15
16 4 11 5 9 14 7 14 16 12 12 22 21 16 12 16 12 16 13 11 11 14 14 11 11 9 7 6 4 4 4 6 8 9 11 12 14 15 13 13 13 14 15 16 17 17 17 18 18
9 10 13 14 14 9 0 15 16 14 10 15 11 14 12 14 14 14 12 10 9 9 12 15 10 11 10 8 4 1 2 3 5 7 9 11 17 17 21 14 9 10 15 18 20 21 21 20 20
14 6 6 12 15 10 7 17 13 10 9 15 14 22 20 18 17 15 13 13 13 10 8 10 15 11 13 10 6 2 2 2 5 10 9 15 20 11 10 15 9 9 16 23 21 20 20 20 23
10 5 9 5 19 8 10 12 9 12 13 15 16 20 21 17 16 13 16 10 16 14 12 9 13 8 5 5 3 3 1 1 5 6 9 15 17 18 16 13 7 15 11 13 18 19 18 22 24
8 6 9 7 13 9 13 13 6 12 8 9 16 17 16 16 15 16 18 14 16 10 13 10 8 7 11 8 8 9 12 8 9 10 9 13 16 16 17 19 14 15 14 11 16 17 21 19 21
6 2 7 10 9 4 7 12 7 18 8 13 20 16 16 16 13 13 14 15 15 10 11 13 9 8 8 8 10 9 9 8 9 8 7 13 13 14 12 16 15 16 20 20 20 21 23 24 23
7 6 4 3 5 10 5 1 5 22 14 9 19 16 16 17 17 19 13 14 13 13 12 12 10 9 7 8 10 7 7 9 9 8 9 9 11 11 12 16 16 15 15 15 21 23 27 26 25
5 5 2 1 8 5 7 5 8 11 21 7 15 14 16 14 5 20 19 14 16 16 13 12 10 7 7 7 6 8 9 10 11 10 10 6 6 10 11 14 19 16 11 15 19 20 23 23 25
9 8 10 9 6 6 2 11 8 11 8 10 9 11 14 8 24 20 19 21 17 17 14 10 10 8 7 4 6 7 9 10 12 14 11 11 9 7 8 12 17 17 12 14 19 24 22 19 21
12 15 13 13 7 6 2 11 11 18 9 8 13 14 12 21 16 15 23 23 18 16 11 6 9 7 6 4 5 7 9 11 12 13 16 12 9 8 13 13 14 16 13 16 19 19 22 23 23
14 12 12 9 8 1 7 7 7 10 10 9 10 13 11 14 17 15 24 22 19 14 12 8 4 2 2 5 7 11 12 12 14 15 15 18 15 11 14 15 14 17 14 13 19 17 18 20 26
13 8 8 1 1 7 7 12 12 14 12 9 9 12 10 14 17 48 13 16 16 12 7 3 1 2 3 8 10 14 13 15 15 20 22 23 23 16 12 9 13 21 18 16 21 18 20 18 20
10 10 9 9 0 2 9 12 15 6 8 4 10 9 12 5 35 42 30 19 15 10 6 3 2 5 6 9 11 14 13 19 20 21 19 23 20 19 15 10 10 16 20 22 22 21 20 17 21
9 10 10 12 12 6 11 15 15 11 3 7 11 11 9 11 21 30 41 19 17 14 11 7 6 6 4 9 13 15 15 15 18 22 11 17 10 10 10 14 14 14 21 22 23 27 24 23 20
11 11 9 11 15 14 18 18 20 13 7 7 7 9 8 9 15 13 16 13 13 13 4 6 12 9 9 8 11 14 16 19 19 21 23 20 24 21 17 16 20 28 25 20 18 20 22 22 24
8 11 11 13 12 11 14 11 13 9 3 4 0 4 9 11 12 9 3 8 14 19 2 11 10 9 6 8 9 11 14 16 21 21 23 28 28 34 35 33 28 15 12 14 16 16 21 23 19
11 12 13 12 12 13 17 6 8 6 9 8 9 1 3 6 10 17 27 5 6 3 2 6 6 4 3 6 8 11 14 17 18 21 23 26 25 23 21 13 13 13 15 17 21 25 23 19 19
10 13 20 17 14 11 3 3 12 8 7 7 9 6 9 9 7 11 18 20 8 5 5 4 7 8 10 10 12 14 15 17 18 18 19 17 18 20 20 20 17 18 15 14 16 18 20 21 21
12 12 9 2 4 4 7 7 9 9 8 8 8 8 3 2 3 10 3 10 9 11 14 12 13 14 14 13 16 14 18 16 15 18 18 20 22 21 23 23 20 17 18 18 19 19 19 20 21
13 6 7 7 11 15 16 3 8 12 9 8 4 6 10 8 11 11 11 9 8 14 14 14 13 14 13 14 17 18 14 12 15 18 22 21 21 22 21 23 17 16 15 19 20 19 19 22 22
10 7 10 6 14 10 11 15 12 5 8 6 1 3 3 6 5 6 7 9 8 8 8 12 12 13 16 17 19 14 14 17 18 20 22 20 19 19 22 23 18 21 22 27 28 26 26 23 24
5 4 4 5 5 9 13 7 7 9 10 10 12 12 13 4 0 4 5 4 1 6 9 9 14 16 17 18 15 17 17 18 20 20 18 21 24 21 23 23 20 25 28 31 25 25 22 23 22
4 9 5 1 5 8 8 2 10 6 5 9 11 11 10 8 6 6 10 9 8 9 12 15 16 17 19 17 17 17 18 20 20 18 19 20 22 24 20 20 28 30 25 22 21 21 22 21 21
7 6 5 4 7 10 9 9 6 4 6 5 3 7 7 7 7 7 10 10 11 12 13 14 16 18 18 17 17 17 20 18 21 22 25 23 24 23 25 30 27 23 22 20 20 20 19 21 17
Wind_Direction
322 305 260 6 27 340 33 69 57 47 65 58 51 78 74 83 81 127 154 126 137 127 116 120 120 119 122 128 130 134 138 126 112 96 83 76 71 68 65 64 67 64 57 49 34 26 26 22 20
304 293 237 114 353 331 77 74 68 63 127 106 92 72 80 85 81 102 108 104 112 118 126 129 132 132 135 137 141 142 135 120 98 78 70 58 50 42 38 32 30 22 13 2 356 347 341 337 336
307 256 273 130 158 180 48 88 98 92 56 93 94 69 59 85 109 107 122 124 131 126 146 132 144 144 145 146 148 155 164 156 179 50 353 355 353 336 327 320 318 315 313 314 313 310 308 307 309
294 275 220 286 204 222 73 77 58 104 103 81 92 76 60 69 90 104 127 133 88 114 122 136 145 150 156 157 161 179 194 228 275 303 306 304 295 288 289 288 287 286 284 286 288 290 294 297 298
283 245 319 314 104 80 78 60 71 74 80 99 94 92 91 92 99 100 81 66 104 104 107 128 144 152 164 177 190 218 240 262 279 285 289 291 289 286 283 282 280 278 279 278 277 277 278 280 284
276 255 68 255 64 82 82 65 73 102 98 114 94 91 105 123 113 112 113 102 75 105 113 126 146 157 169 177 197 223 250 270 281 286 287 289 291 286 283 282 282 282 281 280 280 279 278 277 277
270 228 188 138 36 0 60 62 64 76 83 66 110 105 128 111 130 121 123 117 120 115 132 142 150 159 172 178 199 238 268 286 288 291 295 299 293 283 278 281 286 291 293 290 285 283 281 279 276
307 303 159 158 85 299 133 83 76 78 57 111 116 143 120 123 124 126 114 112 106 119 124 154 163 164 159 151 113 59 359 339 331 320 322 320 306 303 305 283 296 304 298 297 294 289 285 280 274
275 315 126 130 141 153 172 97 96 124 133 63 109 100 122 135 133 125 133 154 119 79 95 66 153 128 147 162 78 110 13 33 3 344 330 331 317 293 279 281 307 297 310 303 293 290 285 280 278
276 292 237 65 112 194 138 109 132 132 108 104 98 112 130 138 132 150 184 131 104 100 62 61 76 69 100 101 336 260 6 151 68 34 359 344 344 351 357 5 295 309 322 321 302 297 294 287 283
284 23 26 79 28 348 100 101 169 83 103 123 133 137 144 153 168 179 127 90 94 99 122 103 78 53 54 35 14 41 51 50 46 19 29 7 357 358 4 4 7 334 315 306 323 320 308 309 302
290 14 351 49 29 356 308 137 201 99 272 212 143 151 160 180 182 119 120 113 103 122 137 106 95 69 89 50 45 51 47 27 20 34 43 13 352 355 358 349 347 345 344 339 340 337 331 328 328
267 286 108 47 322 297 65 156 129 130 212 208 138 162 182 197 169 115 96 121 133 138 97 94 102 101 67 58 61 38 22 20 348 22 19 22 356 354 355 337 328 349 330 341 345 334 328 329 325
5 342 266 240 256 352 324 275 196 170 208 160 147 177 205 199 192 134 134 144 108 112 113 123 114 103 81 57 41 8 1 355 351 339 353 344 331 337 333 334 329 339 356 353 340 324 322 325 316
294 269 228 220 240 289 92 289 207 343 128 168 179 218 233 194 170 136 150 136 133 127 125 130 124 100 76 72 29 359 348 339 326 322 324 326 306 316 324 323 326 336 350 344 333 327 322 334 350
256 251 261 184 142 167 180 295 282 203 127 240 209 221 221 11 219 138 129 128 133 138 132 96 87 97 71 26 1 329 314 308 300 307 303 310 314 316 324 321 308 312 334 325 322 324 339 334 333
230 271 215 168 148 219 193 288 104 176 199 229 267 248 232 142 74 245 123 123 144 139 139 125 111 83 25 329 316 299 295 291 305 315 329 327 314 292 294 312 306 323 315 309 303 315 327 330 329
344 243 22 306 74 137 261 302 293 195 210 228 267 274 267 127 196 84 6 161 144 144 137 130 202 352 326 315 301 296 301 309 328 327 317 312 309 299 282 279 304 314 319 314 312 304 308 311 304
335 325 306 299 79 3 286 292 300 306 247 321 297 276 282 160 109 120 201 189 139 148 145 186 304 302 295 304 315 309 326 325 315 308 310 307 310 314 323 354 325 318 321 318 315 314 299 290 295
321 297 309 335 5 331 281 275 284 286 70 351 326 302 273 142 133 160 203 155 166 169 180 196 234 265 316 329 338 329 315 313 319 318 349 346 2 338 330 319 308 303 305 294 295 292 300 292 288
305 360 8 327 311 293 266 269 243 81 52 18 328 327 335 168 142 158 180 185 195 187 189 168 89 49 19 351 347 341 339 328 324 338 333 332 337 333 321 310 302 298 294 287 298 313 310 298 287
308 12 325 304 301 294 333 299 98 109 107 145 125 305 308 310 142 182 333 194 63 47 77 44 54 48 17 5 346 343 325 330 331 327 326 325 325 317 313 307 302 303 302 303 302 313 311 312 305
323 325 284 270 270 281 269 244 144 166 93 42 32 360 252 279 315 116 156 179 83 97 309 42 52 26 334 328 330 326 321 316 318 319 318 317 317 322 339 337 333 327 319 309 303 302 305 301 303
289 301 311 276 250 245 158 305 97 91 58 41 62 26 1 341 317 114 100 55 310 94 55 36 9 30 1 345 334 324 321 321 319 321 320 316 314 317 316 320 324 320 313 306 305 303 300 293 291
358 357 323 278 283 195 195 259 84 108 79 59 41 17 20 305 319 80 133 170 66 37 40 9 2 357 338 328 318 324 322 319 319 318 317 318 312 308 306 306 310 304 304 306 300 293 290 290 288
303 341 334 338 318 322 310 254 112 91 85 81 53 44 344 351 2 6 13 36 11 29 14 357 341 325 338 347 336 329 327 331 322 321 319 310 302 301 303 305 305 318 310 308 304 303 297 292 291
350 338 344 299 271 257 285 92 95 120 137 155 109 347 284 276 18 333 324 47 25 353 0 332 318 350 347 337 331 333 342 332 318 314 312 312 308 303 304 306 305 300 300 309 302 299 295 294 289
281 342 335 227 301 322 332 350 77 41 38 15 355 346 328 118 127 308 302 311 350 6 330 343 2 347 338 332 333 338 337 327 313 311 308 310 307 304 301 305 300 304 303 307 301 294 292 291 291
304 311 256 337 289 298 298 36 83 53 14 12 5 340 348 17 4 357 10 358 18 2 345 4 353 340 331 328 337 336 330 320 318 319 315 310 308 311 310 314 311 309 306 303 299 295 293 289 285
313 311 345 312 300 307 322 301 56 20 30 18 70 351 25 357 327 320 322 4 15 10 13 352 352 335 327 332 332 327 323 339 336 325 316 312 308 307 306 313 309 300 301 297 293 291 289 287 285